Regional Weather Roundup
Issued by NWS

Home | Current Version | Previous Version | Text Only | Print | Product List | Glossary On
Versions: 1 2 3 4 5 6 7 8 9 10 11 12 13 14 15 16 17 18 19 20 21 22 23 24 25 26 27 28 29 30 31 32 33 34 35 36 37 38 39 40 41 42 43 44 45 46 47 48 49 50
000
ASUS46 KSEW 022110
RWRWA

WASHINGTON REGIONAL WEATHER ROUNDUP
NATIONAL WEATHER SERVICE SEATTLE WA
100 PM PST MON MAR 02 2015

NOTE:"FAIR" INDICATES FEW OR NO CLOUDS BELOW 12,000 FEET WITH NO
SIGNIFICANT WEATHER AND/OR OBSTRUCTIONS TO VISIBILITY.

WAZ505-507>509-022200-
SEATTLE, TACOMA, EVERETT, AND VICINITY

CITY           SKY/WX    TMP DP  RH WIND       PRES   REMARKS
EVERETT        MOSUNNY   47  37  68 NW10G18   30.02F
BOEING FIELD   PTSUNNY   52  36  54 NW10G20   30.03F
RENTON         MOSUNNY   50  37  61 NW10      30.03F
SEATAC AIRPORT PTSUNNY   48  36  63 N8        30.03F
JBLM-MCCHORD   PTSUNNY   49  38  66 N13       30.03F
PUYALLUP       MOCLDY    48  36  61 VRB5      30.02F
BREMERTON      SUNNY     52  32  46 N7        30.04F
JBLM-FT LEWIS  PTSUNNY   48  38  67 N9        30.03S
TACOMA NARROWS MOSUNNY   48  36  63 NE9       30.04F
$$

WAZ001-503-506-510-514-515-022200-
NORTH INTERIOR

CITY           SKY/WX    TMP DP  RH WIND       PRES   REMARKS
BELLINGHAM     SUNNY     53  30  41 W8G16     30.05F
FRIDAY HARBOR  SUNNY     50  38  63 N13       30.08F
EASTSOUND      SUNNY     46  41  81 N14       30.06F
PORT ANGELES   SUNNY     50  28  42 SE8       30.08F
NAS WHIDBEY    MOSUNNY   52  37  56 N17G25    30.06S
ARLINGTON      SUNNY     52  36  54 NW13      30.02F
BURLINGTON     SUNNY     50  39  66 NW18G24   30.04F
$$

WAZ020-022-039-040-504-511-512-022200-
SOUTHWEST INTERIOR

CITY           SKY/WX    TMP DP  RH WIND       PRES   REMARKS
SHELTON        MOSUNNY   53  35  50 SE12      30.00F
OLYMPIA        MOSUNNY   50  36  58 NE8       30.03F
CHEHALIS       FAIR      52  39  62 N10G17    30.02F
KELSO          SUNNY     54  36  50 NW10G20   30.03F
VANCOUVER      SUNNY     51  38  60 NW7       29.97F
SCAPPOOSE, OR    N/A     53  38  56 NW12      29.98F
PORTLAND, OR   MOSUNNY   52  39  61 W9        29.98F
$$

WAZ021-516-517-022200-
WASHINGTON COAST

CITY           SKY/WX    TMP DP  RH WIND       PRES   REMARKS
FORKS          SUNNY     53  33  46 NE8G16    30.05F
HOQUIAM        MOSUNNY   50  42  74 SW9       30.04F
ASTORIA, OR    PTSUNNY   51  39  63 NE6       30.02S
$$

WAZ019-023-024-040-518-519-022200-
CASCADE MOUNTAINS AND COLUMBIA GORGE

CITY           SKY/WX    TMP DP  RH WIND       PRES   REMARKS
TROUTDALE, OR  MOSUNNY   54  38  54 W8        29.96F
THE DALLES, OR PTSUNNY   55  29  36 CALM      29.96F
$$

WAZ026-027-041>044-520-521-022200-
EAST SLOPES

CITY           SKY/WX    TMP DP  RH WIND       PRES   REMARKS
OMAK           SUNNY     49  20  31 N24G31    29.95F
WENATCHEE      CLOUDY    48  28  46 NW5       29.94F
ELLENSBURG     CLOUDY    47  28  47 SW7       29.94F
YAKIMA         CLOUDY    49  26  41 CALM      29.97S
$$

WAZ028-034-035-022200-
COLUMBIA BASIN

CITY           SKY/WX    TMP DP  RH WIND       PRES   REMARKS
EPHRATA        CLOUDY    49  22  34 N15       29.92F
MOSES LAKE     CLOUDY    49  20  31 N16       29.93F
PASCO          CLOUDY    50  29  44 NW15      29.97S
HERMISTON, OR  MOSUNNY   50  22  33 E6        29.95F
$$

WAZ036>038-022200-
NORTHEAST WASHINGTON

CITY           SKY/WX    TMP DP  RH WIND       PRES   REMARKS
SPOKANE GEIGER PTSUNNY   38  25  59 VRB7      29.88F
SPOKANE FELTS  PTSUNNY   40  23  50 CALM      29.90F
FAIRCHILD AFB  MOSUNNY   37  25  61 VRB1      29.87F
COEURDALENE,ID PTSUNNY   37  23  56 NE5       29.87F
DEER PARK      CLOUDY    39  22  50 CALM      29.89S
$$

WAZ029>033-022200-
SOUTHEAST WASHINGTON

CITY           SKY/WX    TMP DP  RH WIND       PRES   REMARKS
PULLMAN        CLOUDY    40  21  46 W12       29.87S
LEWISTON, ID   CLOUDY    42  27  55 W3        29.88F
WALLA WALLA    CLOUDY    42  25  50 VRB3      29.93F
PENDLETON, OR  CLOUDY    44  21  40 N7        29.92F
$$


USA.gov is the U.S. government's official web portal to all federal, state and local government web resources and services.